Location: Colonia Mina de C?rbuni
(46.1667°N, 22.7167°E)
Time: 17:01:28
(UTC+00:00)

DMSP B5D1-3 - Pass Details

Date: 04 February 2023
Orbit: 766 x 778 km, 98.5° (Epoch: 29 March)

Event Time Altitude Azimuth Distance (km) Brightness Sun altitude
Rises 17:25:52 0° 14° (NNE) 3,253 7.6 -18.9°
Reaches altitude 10° 17:28:12 10° 16° (NNE) 2,323 6.8 -19.3°
Maximum altitude 17:33:20 80° 103° (ESE) 789 4.4 -20.2°
Drops below altitude 10° 17:38:26 10° 191° (SSW) 2,315 7.1 -21.1°
Sets 17:40:45 0° 193° (SSW) 3,239 7.9 -21.5°
